[[{"header":{"parameterUnit":"m.s-1","parameterCategory":1,"la1":30.2991,"la2":30.254,"lo1":-89.0895,"lo2":-89.0444,"dy":0.0017,"dx":0.0017,"nx":28,"ny":28,"refTime":"2024-12-04T03:00:00:Z","depth":0,"parameterNumber":2,"parameterNumberName":"U-component_of_WINDS"},"data":[0,0,0,0,0,0,0,0,0,0,0,0,0,0,0,0,0,0,0,0,0,0,0,0,0,0,0,0,0,0,0,0,0,0,0,0,0,0,0,0,0,0,0,0,0,0,0,0,0,0,0,0,0,0,0,0,0,0,-2.7315,-2.7315,0,-2.7359,-2.736,-2.736,-2.7367,-2.7367,-2.7367,-2.7366,-2.7411,-2.7412,-2.7414,0,0,0,0,0,0,0,0,0,0,0,0,0,-2.7236,-2.7238,-2.7315,-2.7315,-2.7316,-2.7359,-2.736,-2.736,-2.7367,-2.7367,-2.7367,-2.7366,-2.741,-2.7412,-2.7414,0,0,0,0,0,0,0,0,0,0,0,0,0,-2.7274,-2.7238,-2.7315,-2.7325,-2.7326,-2.7359,-2.736,-2.736,-2.7368,-2.7367,-2.7366,-2.7366,-2.741,-2.7412,-2.7414,-2.744,0,0,-2.7421,-2.7422,0,0,0,0,0,0,0,0,-2.7272,-2.7277,-2.7323,-2.7324,-2.7326,-2.7357,-2.7348,-2.7387,-2.7368,-2.7352,-2.7366,-2.7366,-2.7393,-2.7397,-2.7406,-2.7442,-2.7444,-2.7421,-2.7423,-2.7424,-2.7424,0,0,0,0,0,0,0,-2.727,-2.7275,-2.7332,-2.7323,-2.7325,-2.7327,-2.7332,-2.7356,-2.7375,-2.7353,-2.7354,-2.7359,-2.7394,-2.7404,-2.7408,-2.7444,-2.7421,-2.7423,-2.7425,-2.7426,-2.7504,-2.7504,0,0,0,0,0,0,-2.7265,-2.7273,-2.7331,-2.7334,-2.7297,-2.7329,-2.7334,-2.7348,-2.7375,-2.7379,-2.7359,-2.7359,-2.7401,-2.7405,-2.7409,-2.7441,-2.7424,-2.7426,-2.7427,-2.7503,-2.7504,-2.7505,0,0,0,0,0,0,-2.7264,-2.727,-2.7329,-2.7304,-2.7311,-2.7331,-2.7346,-2.7349,-2.7359,-2.738,-2.7383,-2.7366,-2.74,-2.7406,-2.7432,-2.7442,-2.7427,-2.7429,-2.7502,-2.7503,-2.7504,-2.7504,0,0,0,0,0,0,-2.7261,-2.727,-2.7279,-2.7304,-2.7313,-2.7351,-2.7346,-2.735,-2.7363,-2.7363,-2.7387,-2.739,-2.74,-2.7429,-2.7435,-2.7445,-2.7431,-2.7501,-2.7503,-2.7504,-2.7504,-2.7505,-2.7507,0,0,0,0,0,-2.7258,-2.7278,-2.728,-2.7287,-2.7325,-2.7352,-2.7357,-2.7368,-2.7364,-2.7374,-2.7387,-2.739,-2.7441,-2.7431,-2.7438,-2.745,-2.7501,-2.7502,-2.7504,-2.7503,-2.7505,-2.7507,0,0,0,0,0,0,-2.7253,-2.7281,-2.7284,-2.7311,-2.7329,-2.7353,-2.7366,-2.737,-2.7389,-2.7389,-2.7402,-2.7407,-2.7433,-2.7444,-2.7433,-2.7476,-2.747,-2.7473,-2.7467,-2.747,-2.7471,-2.7467,-2.7433,0,0,0,0,0,-2.7256,-2.7275,-2.7298,-2.732,-2.7329,-2.7346,-2.7358,-2.7365,-2.7384,-2.7392,-2.7407,-2.7425,-2.7446,-2.7459,-2.7478,-2.7506,-2.7511,-2.7517,-2.7519,-2.752,-2.7522,-2.7538,-2.754,-2.751,-2.751,-2.751,0,0,-2.726,-2.7278,-2.7289,-2.732,-2.7334,-2.7354,-2.7352,-2.7373,-2.7388,-2.7395,-2.7421,-2.7433,-2.7454,-2.7481,-2.7494,-2.7491,-2.7532,-2.7522,-2.7523,-2.7524,-2.7539,-2.7542,-2.7545,-2.7511,-2.751,-2.751,0,0,-2.7278,-2.7293,-2.7313,-2.7329,-2.7351,-2.7363,-2.7368,-2.7391,-2.74,-2.7426,-2.7432,-2.745,-2.7484,-2.7499,-2.7511,-2.7536,-2.7539,-2.7543,-2.7551,-2.7566,-2.7568,-2.757,-2.7579,-2.7581,-2.7545,-2.7545,-2.7545,0,-2.728,-2.731,-2.7323,-2.7344,-2.7357,-2.7366,-2.7386,-2.74,-2.7428,-2.7437,-2.7434,-2.7478,-2.7493,-2.7524,-2.753,-2.754,-2.7546,-2.7539,-2.7567,-2.7569,-2.7571,-2.7579,-2.7583,-2.7545,-2.7545,-2.7545,-2.7545,0,-2.7312,-2.7333,-2.7347,-2.7374,-2.7389,-2.7409,-2.7425,-2.7439,-2.7446,-2.7457,-2.7484,-2.7503,-2.7526,-2.7535,-2.7541,-2.7566,-2.7564,-2.7564,-2.7558,-2.7574,-2.7582,-2.7585,-2.7545,-2.7545,-2.7545,-2.7545,0,0,-2.7327,-2.7361,-2.7366,-2.7378,-2.7405,-2.7421,-2.7442,-2.7466,-2.7477,-2.7497,-2.7515,-2.7545,-2.7545,-2.7559,-2.7567,-2.758,-2.7599,-2.7578,-2.7579,-2.7581,-2.7627,-2.7627,-2.763,-2.7601,-2.7602,-2.7603,-2.7625,0,-2.7347,-2.7385,-2.7397,-2.7429,-2.7448,-2.7457,-2.7476,-2.7494,-2.7506,-2.7524,-2.7538,-2.7558,-2.7557,-2.7566,-2.7579,-2.7593,-2.7608,-2.7592,-2.7617,-2.7618,-2.761,-2.7634,-2.7633,-2.7654,-2.7629,-2.7629,-2.763,0,-2.7375,-2.7395,-2.7429,-2.7453,-2.7462,-2.7478,-2.7501,-2.7519,-2.754,-2.7548,-2.7564,-2.7571,-2.7594,-2.7588,-2.7619,-2.7608,-2.762,-2.7628,-2.763,-2.7631,-2.7624,-2.7635,-2.7661,-2.7663,-2.7635,-2.7634,-2.7634,0,-2.7381,-2.7417,-2.7442,-2.7452,-2.7481,-2.7493,-2.7505,-2.7526,-2.754,-2.756,-2.7569,-2.7592,-2.7604,-2.7621,-2.7635,-2.7629,-2.7665,-2.766,-2.7671,-2.7671,-2.7677,-2.7676,-2.7703,-2.7686,-2.7686,-2.7686,-2.7686,0,-2.7402,-2.7422,-2.7445,-2.746,-2.7483,-2.7497,-2.752,-2.7533,-2.7551,-2.7569,-2.7579,-2.7595,-2.7612,-2.7631,-2.7642,-2.7666,-2.7672,-2.7679,-2.7681,-2.7677,-2.7676,-2.7684,-2.7682,-2.7687,-2.7687,-2.7687,-2.7687,0,-2.7412,-2.7428,-2.7456,-2.7481,-2.7488,-2.7504,-2.7526,-2.7541,-2.7554,-2.7576,-2.7583,-2.7603,-2.7626,-2.7641,-2.7671,-2.7678,-2.7704,-2.7707,-2.7696,-2.7697,-2.7708,-2.7706,-2.774,-2.7745,-2.7725,-2.7725,-2.7726,0,-2.7423,-2.7439,-2.7467,-2.7479,-2.7492,-2.7513,-2.7527,-2.7542,-2.7557,-2.7582,-2.7594,-2.7618,-2.7637,-2.7674,-2.7691,-2.7713,-2.7716,-2.7726,-2.7719,-2.7715,-2.7715,-2.7714,-2.7715,-2.7727,-2.7727,-2.7727,-2.7727,0,-2.7442,-2.745,-2.7469,-2.7493,-2.7509,-2.7528,-2.7547,-2.7557,-2.7576,-2.7592,-2.7615,-2.7631,-2.7661,-2.7684,-2.7709,-2.7722,-2.7728,-2.773,-2.7733,-2.7729,-2.7722,-2.7725,-2.7698,-2.7728,-2.7728,-2.7728,-2.7728,-2.7728,-2.7453,-2.7467,-2.7489,-2.7511,-2.7527,-2.7545,-2.756,-2.7575,-2.7595,-2.7621,-2.7629,-2.7654,-2.7675,-2.7709,-2.7722,-2.7742,-2.7741,-2.7746,-2.7748,-2.7748,-2.7748,-2.772,-2.7746,-2.7746,-2.7746,-2.7746,-2.7746,0,-2.7471,-2.7486,-2.7506,-2.7532,-2.755,-2.7555,-2.7576,-2.759,-2.7612,-2.7632,-2.7651,-2.7678,-2.7701,-2.7721,-2.7744,-2.7756,-2.7759,-2.7762,-2.776,-2.7763,-2.7748,-2.7742,-2.7759,-2.7759,-2.7759,-2.7759,-2.7759,-2.7759,-2.7482,-2.7507,-2.7517,-2.7549,-2.7564,-2.7588,-2.76,-2.7617,-2.7632,-2.7662,-2.7681,-2.7694,-2.7714,-2.774,-2.7761,-2.7766,-2.7774,-2.7775,-2.7781,-2.7766,-2.7764,-2.7763,-2.7757,-2.7777,-2.7777,-2.7795,-2.7795,-2.7795]},{"header":{"parameterUnit":"m.s-1","parameterCategory":1,"la1":30.2991,"la2":30.254,"lo1":-89.0895,"lo2":-89.0444,"dy":0.0017,"dx":0.0017,"nx":28,"ny":28,"refTime":"2024-12-04T03:00:00:Z","depth":0,"parameterNumber":3,"parameterNumberName":"V-component_of_WINDS"},"data":[0,0,0,0,0,0,0,0,0,0,0,0,0,0,0,0,0,0,0,0,0,0,0,0,0,0,0,0,0,0,0,0,0,0,0,0,0,0,0,0,0,0,0,0,0,0,0,0,0,0,0,0,0,0,0,0,0,0,4.2926,4.2926,0,4.293,4.293,4.293,4.289,4.2888,4.2887,4.2886,4.2889,4.289,4.2891,0,0,0,0,0,0,0,0,0,0,0,0,0,4.2885,4.2886,4.2926,4.2926,4.2927,4.293,4.293,4.293,4.289,4.2888,4.2887,4.2886,4.2889,4.289,4.2891,0,0,0,0,0,0,0,0,0,0,0,0,0,4.2897,4.2886,4.2926,4.2907,4.2905,4.293,4.293,4.293,4.289,4.2888,4.2887,4.2885,4.2888,4.289,4.2891,4.2934,0,0,4.2896,4.2897,0,0,0,0,0,0,0,0,4.2896,4.2898,4.291,4.2908,4.2906,4.2907,4.2916,4.2931,4.289,4.2896,4.2886,4.2884,4.2896,4.2897,4.2901,4.2935,4.2935,4.2897,4.2898,4.2898,4.2899,0,0,0,0,0,0,0,4.2895,4.2898,4.2928,4.291,4.2908,4.2898,4.2898,4.2919,4.2905,4.2895,4.2892,4.2893,4.2895,4.29,4.2901,4.2935,4.2897,4.2898,4.2899,4.29,4.3003,4.3004,0,0,0,0,0,0,4.2897,4.2898,4.2928,4.2928,4.2897,4.29,4.29,4.2909,4.2905,4.2903,4.2895,4.2891,4.2898,4.2899,4.2901,4.2951,4.2898,4.29,4.2901,4.3001,4.3003,4.3005,0,0,0,0,0,0,4.2897,4.29,4.2927,4.2912,4.2915,4.2902,4.2913,4.291,4.2914,4.2905,4.2902,4.2902,4.2897,4.2899,4.2926,4.2951,4.2901,4.2902,4.2999,4.3002,4.3004,4.3051,0,0,0,0,0,0,4.2896,4.29,4.2917,4.2913,4.2916,4.2953,4.2914,4.2911,4.2918,4.2913,4.2911,4.2909,4.2896,4.2924,4.2928,4.2952,4.2903,4.2997,4.3,4.3003,4.3048,4.3055,4.3062,0,0,0,0,0,4.2894,4.293,4.2918,4.2922,4.2936,4.2955,4.2956,4.294,4.292,4.2936,4.2929,4.2909,4.2947,4.2927,4.2931,4.2956,4.2995,4.2999,4.3003,4.3044,4.3054,4.3062,0,0,0,0,0,0,4.2938,4.2929,4.2916,4.2951,4.2954,4.2948,4.2968,4.2951,4.296,4.2955,4.2935,4.2935,4.2966,4.2963,4.2941,4.2997,4.2967,4.2972,4.2998,4.3006,4.3014,4.3013,4.2905,0,0,0,0,0,4.2951,4.2967,4.2959,4.2991,4.2993,4.298,4.2988,4.2975,4.2977,4.2978,4.2974,4.2976,4.2989,4.2997,4.3008,4.3047,4.3046,4.3066,4.3073,4.3079,4.3084,4.3104,4.3112,4.3018,4.3018,4.3018,0,0,4.298,4.2977,4.2988,4.3,4.3,4.3017,4.2982,4.3001,4.3013,4.2981,4.3007,4.3004,4.3005,4.3038,4.3053,4.3037,4.3109,4.3084,4.3089,4.309,4.3109,4.3118,4.3126,4.3021,4.302,4.302,0,0,4.304,4.304,4.3066,4.3068,4.3069,4.306,4.3067,4.3063,4.306,4.3085,4.3062,4.3075,4.3098,4.3099,4.3103,4.3164,4.3145,4.3168,4.3205,4.3225,4.3233,4.3239,4.3261,4.3269,4.3172,4.3173,4.3173,0,4.3075,4.31,4.3082,4.3103,4.3109,4.308,4.3107,4.3109,4.3114,4.3118,4.3101,4.3128,4.3127,4.316,4.3175,4.3179,4.3186,4.3168,4.3233,4.3239,4.3245,4.3265,4.3274,4.3175,4.3175,4.3175,4.3174,0,4.3143,4.316,4.3181,4.3187,4.3195,4.3218,4.3204,4.3214,4.3201,4.3194,4.322,4.3218,4.3227,4.3234,4.3222,4.3266,4.3256,4.3236,4.3206,4.3257,4.3276,4.3283,4.3179,4.3178,4.3177,4.3177,0,0,4.3231,4.3226,4.3234,4.3236,4.3235,4.3248,4.327,4.328,4.3289,4.3293,4.3311,4.333,4.3312,4.3316,4.3303,4.3321,4.3369,4.3299,4.3298,4.3312,4.3417,4.3432,4.3441,4.3356,4.3358,4.3359,4.3417,0,4.329,4.3327,4.3312,4.3351,4.3367,4.334,4.3359,4.336,4.3354,4.3366,4.3359,4.3373,4.3348,4.335,4.3366,4.336,4.339,4.3355,4.3373,4.3373,4.3373,4.3451,4.3467,4.3522,4.3424,4.3425,4.3426,0,4.3363,4.3371,4.3411,4.3407,4.3413,4.3431,4.3438,4.345,4.3451,4.3445,4.345,4.3433,4.3454,4.3424,4.3453,4.343,4.3436,4.3434,4.3435,4.3436,4.3403,4.3454,4.3539,4.3547,4.3437,4.3436,4.3436,0,4.3424,4.3443,4.347,4.3473,4.3469,4.3482,4.3481,4.348,4.3486,4.3493,4.3497,4.3506,4.3511,4.3518,4.3504,4.3483,4.3534,4.3503,4.353,4.3531,4.3542,4.3542,4.3629,4.3546,4.3546,4.3546,4.3546,0,4.3491,4.3517,4.3497,4.3514,4.3542,4.3523,4.3552,4.3547,4.3547,4.3562,4.3539,4.3554,4.3534,4.3547,4.3536,4.3561,4.3564,4.3559,4.3556,4.3562,4.3562,4.3565,4.3561,4.3548,4.3548,4.3547,4.3547,0,4.3563,4.3551,4.3578,4.3572,4.3571,4.3592,4.3587,4.3602,4.3594,4.3613,4.3616,4.3604,4.3617,4.3604,4.3617,4.3609,4.3643,4.3635,4.3643,4.3641,4.3669,4.3666,4.3761,4.3773,4.3683,4.3684,4.3684,0,4.3607,4.3626,4.3622,4.3631,4.3631,4.3645,4.3651,4.3634,4.3642,4.3644,4.3659,4.367,4.3679,4.3701,4.3694,4.3703,4.3694,4.3727,4.3696,4.37,4.3695,4.3694,4.3696,4.3734,4.3735,4.3735,4.3736,0,4.3686,4.3679,4.369,4.3698,4.3707,4.3712,4.3716,4.3725,4.3706,4.3716,4.373,4.3736,4.3749,4.3761,4.3768,4.3767,4.3749,4.3746,4.3753,4.3759,4.3763,4.3761,4.3661,4.3744,4.3743,4.3743,4.3742,4.3742,4.3745,4.3761,4.3761,4.3773,4.3774,4.3778,4.3792,4.3785,4.3796,4.3806,4.3794,4.3811,4.3811,4.3819,4.3819,4.3832,4.3818,4.3828,4.3831,4.3833,4.3837,4.3761,4.3833,4.3833,4.3833,4.3833,4.3832,0,4.3823,4.3821,4.3833,4.3839,4.3849,4.3831,4.3834,4.3843,4.3858,4.386,4.3868,4.3884,4.3895,4.3888,4.3897,4.3909,4.3901,4.3912,4.3911,4.3911,4.3849,4.3842,4.3918,4.3918,4.3918,4.3918,4.3918,4.3918,4.3865,4.3891,4.3883,4.3909,4.3907,4.3923,4.3926,4.393,4.3931,4.3949,4.3958,4.3954,4.3951,4.3961,4.397,4.3967,4.3972,4.3986,4.3981,4.3924,4.3915,4.3907,4.3901,4.3988,4.3988,4.4041,4.4042,4.4042]}]]